GW5379 Weather Reports


time (UTC)temp
C
wind
direction
speed
KPH
gust
KPH
rain 1hr
cm
rain 24hr
cm
rain mn
cm
humidity
%
barometer
mb
20260505052152 16 322 0.0 0.0 0.00 0.00 0.00 83 1014.7
20260505051649 16 322 0.0 0.0 0.00 0.00 0.00 82 1014.5
20260505051147 16 322 0.0 0.0 0.00 0.00 0.00 79 1014.4
20260505050645 16 325 0.0 0.0 0.00 0.00 0.00 80 1014.3
20260505050143 16 323 0.0 0.0 0.00 0.00 0.00 80 1014.4
20260505041613 17 127 0.0 0.0 0.00 0.00 0.00 76 1014.4
20260505041110 17 316 0.0 0.0 0.00 0.00 0.00 76 1014.5
20260505040607 17 355 0.0 1.6 0.00 0.00 0.00 76 1014.5
20260505040104 17 270 0.0 0.0 0.00 0.00 0.00 75 1014.8
20260505035600 17 185 0.0 1.6 0.00 0.00 0.00 75 1014.6
20260505035057 17 314 0.0 0.0 0.00 0.00 0.00 74 1014.6
20260505034553 17 286 0.0 0.0 0.00 0.00 0.00 74 1014.5
20260505034050 17 302 0.0 0.0 0.00 0.00 0.00 74 1014.4
20260505033547 18 305 0.0 0.0 0.00 0.00 0.00 73 1014.5
20260505033046 18 275 0.0 0.0 0.00 0.00 0.00 73 1014.8
20260505032543 18 275 0.0 0.0 0.00 0.00 0.00 73 1014.5
20260505032039 18 301 0.0 0.0 0.00 0.00 0.00 72 1014.6
20260505031537 18 303 0.0 0.0 0.00 0.00 0.00 72 1014.6
20260505031033 18 291 0.0 0.0 0.00 0.00 0.00 71 1014.4
20260505030530 18 301 0.0 0.0 0.00 0.00 0.00 71 1014.5
20260505030026 18 300 0.0 0.0 0.00 0.00 0.00 71 1014.3
20260505025522 18 297 0.0 0.0 0.00 0.00 0.00 70 1014.4
20260505025021 18 332 0.0 0.0 0.00 0.00 0.00 70 1014.1
20260505024518 18 254 0.0 0.0 0.00 0.00 0.00 70 1014.3
20260505024015 18 308 0.0 0.0 0.00 0.00 0.00 70 1014.0
20260505023512 18 149 1.6 1.6 0.00 0.00 0.00 69 1014.1
20260505023009 18 306 0.0 0.0 0.00 0.00 0.00 69 1014.0
20260505022507 18 268 0.0 0.0 0.00 0.00 0.00 69 1014.2
20260505022004 19 283 0.0 0.0 0.00 0.00 0.00 68 1014.1
20260505021500 19 269 0.0 1.6 0.00 0.00 0.00 68 1014.3
20260505020956 19 291 0.0 0.0 0.00 0.00 0.00 68 1014.2
20260505020451 19 283 0.0 1.6 0.00 0.00 0.00 68 1014.1
20260505015948 19 285 0.0 0.0 0.00 0.00 0.00 67 1014.0
20260505015446 19 284 0.0 0.0 0.00 0.00 0.00 66 1013.9
20260505014943 19 287 0.0 0.0 0.00 0.00 0.00 65 1013.6
20260505014439 19 289 0.0 0.0 0.00 0.00 0.00 64 1014.1
20260505013937 20 286 0.0 0.0 0.00 0.00 0.00 63 1013.8
20260505013434 20 297 0.0 0.0 0.00 0.00 0.00 62 1013.9
20260505012931 20 269 0.0 0.0 0.00 0.00 0.00 62 1013.8
20260505012429 20 239 0.0 1.6 0.00 0.00 0.00 61 1013.8
20260505011925 20 216 1.6 3.2 0.00 0.00 0.00 60 1013.7
20260505011422 21 275 1.6 1.6 0.00 0.00 0.00 60 1013.4
20260505010918 21 241 1.6 1.6 0.00 0.00 0.00 58 1013.8
20260505010414 21 292 0.0 0.0 0.00 0.00 0.00 58 1013.8
20260505005910 21 226 1.6 3.2 0.00 0.00 0.00 57 1013.6
20260505005408 21 292 0.0 1.6 0.00 0.00 0.00 58 1013.5
20260505004905 21 274 1.6 1.6 0.00 0.00 0.00 57 1013.5
20260505004401 21 246 1.6 1.6 0.00 0.00 0.00 56 1013.6
20260505003858 22 244 0.0 1.6 0.00 0.00 0.00 55 1013.6
20260505003355 22 266 1.6 1.6 0.00 0.00 0.00 54 1013.7
20260505002852 22 188 1.6 1.6 0.00 0.00 0.00 54 1013.7
20260505002348 22 209 1.6 3.2 0.00 0.00 0.00 52 1013.9
20260505001847 23 147 6.4 11.3 0.00 0.00 0.00 50 1013.8
20260505001344 23 235 3.2 3.2 0.00 0.00 0.00 49 1013.8
20260505000841 23 259 1.6 1.6 0.00 0.00 0.00 50 1014.2
20260505000338 23 270 3.2 3.2 0.00 0.00 0.00 48 1014.1
20260504235835 24 230 4.8 8.0 0.00 0.00 0.00 46 1014.0
20260504235332 24 215 3.2 3.2 0.00 0.00 0.00 46 1014.2
20260504234828 24 234 1.6 4.8 0.00 0.00 0.00 47 1014.1
20260504234326 24 259 3.2 3.2 0.00 0.00 0.00 46 1014.0
20260504233823 24 203 6.4 11.3 0.00 0.00 0.00 45 1014.2
20260504233318 24 257 6.4 8.0 0.00 0.00 0.00 45 1013.9
20260504232815 25 230 1.6 3.2 0.00 0.00 0.00 45 1014.2
20260504232313 25 201 1.6 1.6 0.00 0.00 0.00 45 1014.2
20260504231809 25 279 0.0 1.6 0.00 0.00 0.00 44 1014.4
20260504231306 25 158 3.2 3.2 0.00 0.00 0.00 43 1014.3
20260504230802 25 256 3.2 4.8 0.00 0.00 0.00 44 1014.1
20260504230300 25 198 6.4 8.0 0.00 0.00 0.00 42 1014.1
20260504225759 26 258 4.8 4.8 0.00 0.00 0.00 43 1014.3
20260504225254 26 255 4.8 4.8 0.00 0.00 0.00 42 1014.3
20260504224752 26 255 4.8 4.8 0.00 0.00 0.00 42 1014.5
20260504224249 26 193 6.4 11.3 0.00 0.00 0.00 43 1014.5
20260504223745 26 190 8.0 9.7 0.00 0.00 0.00 41 1014.4
20260504223241 26 248 4.8 4.8 0.00 0.00 0.00 43 1014.5
20260504222738 26 187 4.8 8.0 0.00 0.00 0.00 42 1014.4
20260504222235 26 271 0.0 0.0 0.00 0.00 0.00 41 1014.6
20260504221732 26 192 3.2 3.2 0.00 0.00 0.00 42 1014.5
20260504221229 26 210 3.2 3.2 0.00 0.00 0.00 41 1014.5
20260504220726 26 249 3.2 4.8 0.00 0.00 0.00 42 1014.6
20260504220223 26 253 6.4 8.0 0.00 0.00 0.00 42 1014.7
20260504215720 26 187 6.4 9.7 0.00 0.00 0.00 41 1014.7
20260504215217 26 228 3.2 4.8 0.00 0.00 0.00 42 1014.9
20260504214713 26 229 3.2 3.2 0.00 0.00 0.00 42 1014.8
20260504214209 27 197 6.4 8.0 0.00 0.00 0.00 41 1014.9
20260504213706 27 231 6.4 8.0 0.00 0.00 0.00 44 1014.9
20260504213202 27 316 4.8 4.8 0.00 0.00 0.00 42 1014.7
20260504212659 27 184 4.8 8.0 0.00 0.00 0.00 42 1014.9
20260504212156 27 182 6.4 8.0 0.00 0.00 0.00 42 1015.0
20260504211653 27 278 4.8 4.8 0.00 0.00 0.00 42 1014.9
20260504211149 27 145 3.2 4.8 0.00 0.00 0.00 43 1015.3
20260504210647 27 155 3.2 3.2 0.00 0.00 0.00 42 1015.1
20260504210143 27 227 1.6 1.6 0.00 0.00 0.00 42 1015.1
20260504205641 27 143 3.2 4.8 0.00 0.00 0.00 42 1015.4
20260504205138 26 250 1.6 1.6 0.00 0.00 0.00 40 1015.4
20260504204637 27 225 6.4 8.0 0.00 0.00 0.00 43 1015.5
20260504204135 27 67 3.2 4.8 0.00 0.00 0.00 46 1015.5
20260504203634 26 266 3.2 3.2 0.00 0.00 0.00 45 1015.5
20260504203131 27 187 3.2 4.8 0.00 0.00 0.00 42 1015.8
20260504202631 27 192 4.8 8.0 0.00 0.00 0.00 42 1015.6
20260504202128 27 234 3.2 8.0 0.00 0.00 0.00 45 1015.9
20260504201625 27 202 6.4 8.0 0.00 0.00 0.00 44 1015.8
20260504201123 27 171 4.8 4.8 0.00 0.00 0.00 44 1015.7
20260504200620 27 248 3.2 4.8 0.00 0.00 0.00 47 1015.7
20260504200116 26 254 3.2 3.2 0.00 0.00 0.00 46 1016.0
20260504195612 27 264 4.8 4.8 0.00 0.00 0.00 42 1016.1
20260504195109 27 154 4.8 8.0 0.00 0.00 0.00 46 1016.3
20260504194605 27 233 4.8 8.0 0.00 0.00 0.00 46 1016.1
20260504194101 26 189 3.2 3.2 0.00 0.00 0.00 46 1016.5
20260504193558 27 220 6.4 9.7 0.00 0.00 0.00 42 1016.7
20260504193056 27 194 1.6 3.2 0.00 0.00 0.00 45 1016.8
20260504192554 27 252 1.6 3.2 0.00 0.00 0.00 45 1016.6
20260504192052 27 293 1.6 1.6 0.00 0.00 0.00 44 1017.0
20260504191550 27 189 4.8 4.8 0.00 0.00 0.00 45 1016.8
20260504191046 26 210 4.8 4.8 0.00 0.00 0.00 43 1016.8
20260504190542 26 245 1.6 3.2 0.00 0.00 0.00 44 1016.7
20260504190038 27 161 4.8 4.8 0.00 0.00 0.00 46 1017.1
20260504185536 26 234 4.8 8.0 0.00 0.00 0.00 44 1017.0
20260504185032 26 234 4.8 8.0 0.00 0.00 0.00 44 1016.8
20260504184527 26 234 4.8 8.0 0.00 0.00 0.00 44 1017.0
20260504184023 26 323 1.6 3.2 0.00 0.00 0.00 43 1017.1
20260504183520 26 207 4.8 8.0 0.00 0.00 0.00 43 1017.1
20260504183019 26 310 3.2 4.8 0.00 0.00 0.00 47 1016.9
20260504182515 26 215 1.6 3.2 0.00 0.00 0.00 49 1017.6
20260504182012 26 165 3.2 8.0 0.00 0.00 0.00 46 1017.3
20260504181509 26 215 3.2 3.2 0.00 0.00 0.00 44 1017.4
20260504181008 26 194 6.4 9.7 0.00 0.00 0.00 44 1017.5
20260504180506 26 324 4.8 4.8 0.00 0.00 0.00 47 1017.6
20260504180005 26 320 1.6 3.2 0.00 0.00 0.00 47 1017.8
20260504175501 26 206 3.2 3.2 0.00 0.00 0.00 47 1017.8
20260504174958 26 214 0.0 1.6 0.00 0.00 0.00 48 1017.9
20260504174456 25 174 4.8 8.0 0.00 0.00 0.00 45 1017.9
20260504173953 26 235 8.0 11.3 0.00 0.00 0.00 44 1017.8
20260504173449 26 345 1.6 1.6 0.00 0.00 0.00 44 1017.8
20260504172947 26 235 3.2 4.8 0.00 0.00 0.00 48 1017.9
20260504172443 25 207 1.6 1.6 0.00 0.00 0.00 48 1018.0
20260504171940 26 174 4.8 4.8 0.00 0.00 0.00 46 1018.1
20260504171437 25 272 3.2 3.2 0.00 0.00 0.00 47 1018.1
20260504170934 26 331 3.2 3.2 0.00 0.00 0.00 44 1018.3
20260504170430 26 240 6.4 9.7 0.00 0.00 0.00 44 1018.0
20260504160349 25 273 1.6 1.6 0.00 0.00 0.00 51 1018.7
20260504150814 23 201 4.8 4.8 0.00 0.00 0.00 53 1018.7
20260504150310 23 243 1.6 3.2 0.00 0.00 0.00 56 1018.7
20260504141240 20 209 1.6 3.2 0.00 0.00 0.00 71 1018.8
20260504140737 20 204 4.8 4.8 0.00 0.00 0.00 72 1018.7
20260504140233 20 229 3.2 3.2 0.00 0.00 0.00 71 1018.7
20260504130701 17 252 0.0 0.0 0.00 0.00 0.00 81 1018.7
20260504130157 17 25 1.6 1.6 0.00 0.00 0.00 80 1018.7
20260504120121 12 313 0.0 0.0 0.00 0.00 0.00 99 1018.3
20260504110549 11 300 0.0 0.0 0.00 0.00 0.00 99 1017.9
20260504100510 11 311 0.0 0.0 0.00 0.00 0.00 99 1017.8
20260504081904 11 288 0.0 0.0 0.00 0.00 0.00 95 1018.4
20260504081400 11 308 0.0 0.0 0.00 0.00 0.00 95 1018.4
20260504080856 11 308 0.0 0.0 0.00 0.00 0.00 95 1018.0
20260504080354 12 308 0.0 0.0 0.00 0.00 0.00 95 1018.2
20260504070321 12 305 0.0 0.0 0.00 0.00 0.00 91 1018.5
20260504060241 13 306 0.0 0.0 0.00 0.00 0.00 86 1019.3